sat.trackr.live / text

‹ back to catalog

STARLINK-30510

NORAD 57981 · 2023-151T

PAYLOAD ACTIVE UNKNOWN

§ Identity

Operator
Country
US
Launch date
2023-09-30
Launch site
AFETR
Launch vehicle
Mass (kg)
RCS (m²)

Purposes: comms

External: N2YO · Heavens-Above · Gunter

§ Orbital elements

Epoch: 2026-09-20T22:07:48.298656Z

Period
94.27 min
Inclination
43.0036°
Eccentricity
0.0001352
Mean motion
15.27576610 rev/d
Perigee alt
482.1 km
Apogee alt
484.0 km
Semi-major
6,861.2 km
B*
3.5606e-5
RAAN
331.3453°
Arg perigee
248.0769°
Mean anomaly
111.9939°
Rev number
16,541

§ Raw data

STARLINK-305101 57981U 23151T   26263.92208679  .00000718  00000+0  35606-4 0  99932 57981  43.0036 331.3453 0001352 248.0769 111.9939 15.27576610165417

JSON: /api/v1/satellites/57981 · /tle

For live sub-satellite position, see the globe view (requires WebGL).

§ Visibility from observer

Set your observer location to see the next 7 days of passes ≥ 10°. The values pass through the URL so the page stays shareable.

No JS? Fill the form by hand. The geolocation button needs JavaScript.